FW4263 Weather Reports


Display with metric or nautical units.
time (UTC)temp
F
wind
direction
speed
MPH
gust
MPH
rain 1hr
in
rain 24hr
in
rain mn
in
humidity
%
barometer
mb
20260906044500 79 115 0.0 0.0 0.00 0.00 0.00 86 1011.8
20260906044000 79 115 0.0 0.0 0.00 0.00 0.00 86 1011.9
20260906043500 79 115 0.0 0.0 0.00 0.00 0.00 86 1011.9
20260906042501 80 115 0.0 0.0 0.00 0.00 0.00 85 1011.9
20260906042000 80 115 0.0 0.0 0.00 0.00 0.00 85 1012.0
20260906041502 80 115 0.0 0.0 0.00 0.00 0.00 85 1011.9
20260906041000 80 115 0.0 0.0 0.00 0.00 0.00 85 1012.0
20260906040502 80 115 0.0 0.0 0.00 0.00 0.00 84 1011.9
20260906035500 80 115 0.0 1.0 0.00 0.00 0.00 84 1011.9
20260906035000 80 115 0.0 0.0 0.00 0.00 0.00 85 1011.9
20260906034500 80 115 0.0 0.0 0.00 0.00 0.00 85 1011.9
20260906034000 80 115 0.0 0.0 0.00 0.00 0.00 84 1012.0
20260906033500 80 115 0.0 0.0 0.00 0.00 0.00 84 1012.0
20260906032500 81 115 0.0 0.0 0.00 0.00 0.00 83 1012.0
20260906032000 81 115 0.0 0.0 0.00 0.00 0.00 83 1012.1
20260906031000 81 115 0.0 0.0 0.00 0.00 0.00 84 1012.0
20260906030003 81 115 0.0 0.0 0.00 0.00 0.00 83 1011.9
20260906025000 81 115 0.0 0.0 0.00 0.00 0.00 83 1011.9
20260906024501 82 115 0.0 0.0 0.00 0.00 0.00 82 1011.9
20260906024000 82 115 0.0 0.0 0.00 0.00 0.00 82 1011.8
20260906023000 82 115 0.0 0.0 0.00 0.00 0.00 82 1011.8
20260906022500 82 115 0.0 0.0 0.00 0.00 0.00 81 1011.7
20260906022000 82 115 0.0 0.0 0.00 0.00 0.00 81 1011.7
20260906021501 82 115 0.0 0.0 0.00 0.00 0.00 81 1011.6
20260906021001 82 115 0.0 1.0 0.00 0.00 0.00 81 1011.6
20260906020500 82 115 0.0 1.0 0.00 0.00 0.00 81 1011.6
20260906020004 83 115 0.0 0.0 0.00 0.00 0.00 80 1011.5
20260906015501 83 115 0.0 0.0 0.00 0.00 0.00 80 1011.5
20260906015000 83 115 0.0 0.0 0.00 0.00 0.00 80 1011.3
20260906014500 83 115 0.0 0.0 0.00 0.00 0.00 79 1011.2
20260906014000 84 115 0.0 0.0 0.00 0.00 0.00 79 1011.2
20260906013500 84 115 0.0 1.0 0.00 0.00 0.00 79 1011.2
20260906013000 84 115 0.0 1.0 0.00 0.00 0.00 79 1011.0
20260906012501 84 115 0.0 0.0 0.00 0.00 0.00 78 1011.1
20260906012000 85 115 0.0 0.0 0.00 0.00 0.00 77 1011.2
20260906011500 85 115 0.0 1.0 0.00 0.00 0.00 76 1011.1
20260906011000 85 115 0.0 1.0 0.00 0.00 0.00 76 1011.1
20260906010500 86 115 0.0 1.0 0.00 0.00 0.00 76 1011.0
20260906010002 86 115 0.0 0.0 0.00 0.00 0.00 75 1010.9
20260906005500 86 115 0.0 0.0 0.00 0.00 0.00 73 1010.8
20260906005000 86 115 0.0 0.0 0.00 0.00 0.00 73 1010.9
20260906004500 87 115 0.0 0.0 0.00 0.00 0.00 74 1010.8
20260906004001 87 115 0.0 0.0 0.00 0.00 0.00 73 1010.7
20260906003001 88 115 0.0 0.0 0.00 0.00 0.00 72 1010.7
20260906002500 88 115 0.0 1.0 0.00 0.00 0.00 70 1010.8
20260906002000 89 115 0.0 0.0 0.00 0.00 0.00 70 1010.9
20260906001500 89 115 0.0 0.0 0.00 0.00 0.00 69 1010.7
20260906000501 90 115 0.0 0.0 0.00 0.00 0.00 70 1010.8
20260906000002 90 115 0.0 1.0 0.00 0.00 0.00 68 1010.8
20260905235500 91 115 0.0 0.0 0.00 0.00 0.00 67 1010.7
20260905234500 91 115 0.0 0.0 0.00 0.00 0.00 67 1010.8
20260905234000 92 115 0.0 1.0 0.00 0.00 0.00 66 1010.8
20260905233500 92 115 0.0 1.0 0.00 0.00 0.00 66 1010.9
20260905233000 92 115 0.0 0.0 0.00 0.00 0.00 64 1010.9
20260905232500 93 115 0.0 0.0 0.00 0.00 0.00 63 1010.9
20260905232001 93 115 0.0 0.0 0.00 0.00 0.00 62 1010.9
20260905231500 93 115 0.0 1.0 0.00 0.00 0.00 65 1011.0
20260905231000 93 115 0.0 1.0 0.00 0.00 0.00 64 1010.9
20260905230500 94 115 0.0 1.0 0.00 0.00 0.00 62 1010.8
20260905225459 94 115 0.0 0.0 0.00 0.00 0.00 59 1010.9
20260905225000 94 115 0.0 0.0 0.00 0.00 0.00 59 1011.0
20260905224500 94 115 0.0 2.0 0.00 0.00 0.00 58 1010.9
20260905223959 95 115 0.0 2.0 0.00 0.00 0.00 58 1011.0
20260905223501 95 5 0.0 2.0 0.00 0.00 0.00 58 1011.0
20260905223000 95 242 0.0 2.0 0.00 0.00 0.00 56 1011.0
20260905222500 95 242 0.0 1.0 0.00 0.00 0.00 56 1011.0
20260905222000 95 242 0.0 1.0 0.00 0.00 0.00 57 1011.0
20260905221500 95 234 0.0 2.0 0.00 0.00 0.00 57 1011.1
20260905220959 95 234 1.0 2.0 0.00 0.00 0.00 55 1011.0
20260905220459 95 234 1.0 2.0 0.00 0.00 0.00 55 1011.0
20260905220004 95 234 1.0 2.0 0.00 0.00 0.00 56 1011.1
20260905215500 95 234 1.0 2.0 0.00 0.00 0.00 56 1011.1
20260905214500 94 234 1.0 3.0 0.00 0.00 0.00 56 1011.1
20260905214001 94 196 0.0 2.0 0.00 0.00 0.00 56 1011.2
20260905213459 94 98 1.0 4.0 0.00 0.00 0.00 57 1011.2
20260905213000 94 98 1.0 4.0 0.00 0.00 0.00 57 1011.2
20260905212500 94 153 1.0 2.0 0.00 0.00 0.00 57 1011.3
20260905210959 96 156 1.0 2.0 0.00 0.00 0.00 54 1011.3
20260905210501 97 156 1.0 5.0 0.00 0.00 0.00 51 1011.3
20260905210002 98 156 1.0 5.0 0.00 0.00 0.00 50 1011.3
20260905205000 100 69 1.0 4.0 0.00 0.00 0.00 48 1011.4
20260905204500 99 51 1.0 4.0 0.00 0.00 0.00 50 1011.4
20260905203959 99 49 1.0 4.0 0.00 0.00 0.00 51 1011.5
20260905203459 99 153 1.0 3.0 0.00 0.00 0.00 49 1011.5
20260905202959 99 46 1.0 3.0 0.00 0.00 0.00 51 1011.6
20260905202501 99 82 1.0 3.0 0.00 0.00 0.00 53 1011.7
20260905201959 99 142 1.0 3.0 0.00 0.00 0.00 51 1011.9
20260905201500 99 141 0.0 2.0 0.00 0.00 0.00 52 1012.0
20260905201001 100 57 1.0 3.0 0.00 0.00 0.00 51 1011.9
20260905200500 100 57 2.0 4.0 0.00 0.00 0.00 49 1012.0
20260905200002 101 31 1.0 4.0 0.00 0.00 0.00 48 1012.1
20260905195459 101 148 1.0 5.0 0.00 0.00 0.00 48 1012.2
20260905195000 101 162 1.0 4.0 0.00 0.00 0.00 48 1012.3
20260905194500 100 97 1.0 4.0 0.00 0.00 0.00 50 1012.3
20260905193959 100 355 1.0 4.0 0.00 0.00 0.00 54 1012.4
20260905193000 99 5 1.0 3.0 0.00 0.00 0.00 52 1012.4
20260905192000 98 349 1.0 4.0 0.00 0.00 0.00 51 1012.6
20260905190959 98 321 1.0 4.0 0.00 0.00 0.00 52 1012.7
20260905190459 99 311 1.0 4.0 0.00 0.00 0.00 50 1012.9
20260905190002 100 155 1.0 3.0 0.00 0.00 0.00 49 1012.8
20260905185459 100 157 1.0 3.0 0.00 0.00 0.00 52 1012.9
20260905184959 100 156 1.0 3.0 0.00 0.00 0.00 49 1013.0
20260905184500 100 134 1.0 3.0 0.00 0.00 0.00 49 1013.1
20260905184001 99 263 1.0 3.0 0.00 0.00 0.00 51 1013.0
20260905182959 98 46 1.0 3.0 0.00 0.00 0.00 53 1013.2
20260905182459 98 46 1.0 4.0 0.00 0.00 0.00 51 1013.3
20260905181959 98 105 1.0 4.0 0.00 0.00 0.00 53 1013.3
20260905180959 97 240 1.0 4.0 0.00 0.00 0.00 53 1013.3
20260905180501 97 12 1.0 4.0 0.00 0.00 0.00 57 1013.3
20260905180002 98 92 1.0 4.0 0.00 0.00 0.00 54 1013.4
20260905175459 98 150 1.0 2.0 0.00 0.00 0.00 55 1013.4
20260905174959 98 150 1.0 3.0 0.00 0.00 0.00 53 1013.5
20260905174459 98 150 1.0 5.0 0.00 0.00 0.00 55 1013.6
20260905174000 98 46 1.0 4.0 0.00 0.00 0.00 54 1013.5
20260905173459 97 13 1.0 3.0 0.00 0.00 0.00 58 1013.7
20260905173001 97 178 1.0 3.0 0.00 0.00 0.00 59 1013.6
20260905172001 97 248 1.0 4.0 0.00 0.00 0.00 56 1013.7
20260905171459 96 42 1.0 3.0 0.00 0.00 0.00 60 1013.8
20260905170959 96 66 1.0 3.0 0.00 0.00 0.00 59 1013.8
20260905170459 96 126 1.0 3.0 0.00 0.00 0.00 59 1013.9
20260905170001 95 51 1.0 4.0 0.00 0.00 0.00 62 1013.9
20260905165458 95 119 2.0 4.0 0.00 0.00 0.00 60 1014.0
20260905164958 94 169 1.0 3.0 0.00 0.00 0.00 61 1014.1
20260905163958 94 350 1.0 4.0 0.00 0.00 0.00 64 1014.2
20260905163500 94 92 1.0 2.0 0.00 0.00 0.00 62 1014.2
20260905162958 94 71 1.0 6.0 0.00 0.00 0.00 63 1014.3
20260905162458 93 67 1.0 6.0 0.00 0.00 0.00 64 1014.3
20260905161958 93 152 1.0 3.0 0.00 0.00 0.00 64 1014.3
20260905161459 93 130 0.0 2.0 0.00 0.00 0.00 67 1014.4
20260905161000 93 129 1.0 6.0 0.00 0.00 0.00 66 1014.4
20260905160500 92 128 1.0 6.0 0.00 0.00 0.00 66 1014.4
20260905160004 92 132 1.0 4.0 0.00 0.00 0.00 69 1014.4
20260905155459 91 134 1.0 4.0 0.00 0.00 0.00 69 1014.4
20260905154959 91 121 1.0 3.0 0.00 0.00 0.00 69 1014.5
20260905153959 90 53 0.0 2.0 0.00 0.00 0.00 70 1014.5
20260905153459 90 53 0.0 2.0 0.00 0.00 0.00 71 1014.5
20260905152959 89 49 1.0 2.0 0.00 0.00 0.00 71 1014.5
20260905152501 89 124 0.0 2.0 0.00 0.00 0.00 73 1014.5
20260905151459 88 124 0.0 1.0 0.00 0.00 0.00 75 1014.5
20260905151000 88 124 0.0 1.0 0.00 0.00 0.00 77 1014.6
20260905150459 87 124 0.0 1.0 0.00 0.00 0.00 77 1014.6
20260905150001 87 124 0.0 1.0 0.00 0.00 0.00 78 1014.6
20260905145458 87 124 0.0 0.0 0.00 0.00 0.00 78 1014.5
20260905144958 86 124 0.0 2.0 0.00 0.00 0.00 78 1014.5
20260905144458 86 124 0.0 2.0 0.00 0.00 0.00 79 1014.5
20260905143958 85 123 0.0 0.0 0.00 0.00 0.00 81 1014.4
20260905143458 84 123 0.0 0.0 0.00 0.00 0.00 85 1014.4
20260905142959 83 123 0.0 0.0 0.00 0.00 0.00 85 1014.4
20260905142459 82 123 0.0 0.0 0.00 0.00 0.00 86 1014.4
20260905141958 82 123 0.0 0.0 0.00 0.00 0.00 88 1014.4
20260905141458 81 123 0.0 0.0 0.00 0.00 0.00 87 1014.4
20260905140459 80 123 0.0 0.0 0.00 0.00 0.00 88 1014.4
20260905140001 80 123 0.0 0.0 0.00 0.00 0.00 89 1014.4
20260905135458 79 123 0.0 0.0 0.00 0.00 0.00 90 1014.4
20260905133958 78 123 0.0 0.0 0.00 0.00 0.00 93 1014.3
20260905133458 78 123 0.0 0.0 0.00 0.00 0.00 93 1014.2
20260905132958 78 123 0.0 0.0 0.00 0.00 0.00 93 1014.3
20260905132458 77 123 0.0 0.0 0.00 0.00 0.00 93 1014.2
20260905131458 77 123 0.0 0.0 0.00 0.00 0.00 94 1014.3
20260905130959 76 123 0.0 0.0 0.00 0.00 0.00 94 1014.3
20260905130458 76 123 0.0 0.0 0.00 0.00 0.00 94 1014.3
20260905130002 76 123 0.0 0.0 0.00 0.00 0.00 94 1014.1
20260905125459 76 123 0.0 0.0 0.00 0.00 0.00 94 1014.2
20260905124959 76 123 0.0 0.0 0.00 0.00 0.00 94 1014.2
20260905124459 76 123 0.0 0.0 0.00 0.00 0.00 94 1014.1
20260905123959 75 123 0.0 0.0 0.00 0.00 0.00 94 1014.0
20260905123501 75 118 0.0 0.0 0.00 0.00 0.00 94 1014.1
20260905122959 75 118 0.0 0.0 0.00 0.00 0.00 94 1013.9
20260905122459 75 118 0.0 0.0 0.00 0.00 0.00 94 1013.8
20260905121959 75 118 0.0 0.0 0.00 0.00 0.00 94 1013.9
20260905120004 75 118 0.0 0.0 0.00 0.00 0.00 94 1013.8
20260905115458 75 118 0.0 0.0 0.00 0.00 0.00 94 1013.8
20260905114458 75 118 0.0 0.0 0.00 0.00 0.00 93 1013.6
20260905113458 75 118 0.0 0.0 0.00 0.00 0.00 93 1013.5
20260905112958 75 118 0.0 0.0 0.00 0.00 0.00 93 1013.5
20260905112458 75 118 0.0 0.0 0.00 0.00 0.00 93 1013.4
20260905111958 75 118 0.0 0.0 0.00 0.00 0.00 93 1013.4
20260905111458 76 118 0.0 0.0 0.00 0.00 0.00 93 1013.3
20260905110958 76 118 0.0 0.0 0.00 0.00 0.00 92 1013.4
20260905110459 75 118 0.0 0.0 0.00 0.00 0.00 92 1013.3
20260905110001 76 118 0.0 0.0 0.00 0.00 0.00 92 1013.3
20260905105458 76 118 0.0 0.0 0.00 0.00 0.00 92 1013.4
20260905104958 76 118 0.0 0.0 0.00 0.00 0.00 92 1013.3
20260905104458 76 118 0.0 0.0 0.00 0.00 0.00 92 1013.3
20260905103958 76 118 0.0 0.0 0.00 0.00 0.00 92 1013.3
20260905103458 76 118 0.0 0.0 0.00 0.00 0.00 92 1013.5
20260905102458 76 118 0.0 0.0 0.00 0.00 0.00 92 1013.6
20260905101959 76 118 0.0 0.0 0.00 0.00 0.00 92 1013.6
20260905101458 76 118 0.0 0.0 0.00 0.00 0.00 92 1013.5
20260905100458 76 118 0.0 0.0 0.00 0.00 0.00 92 1013.5
20260905100001 76 118 0.0 0.0 0.00 0.00 0.00 92 1013.4
20260905095458 76 118 0.0 0.0 0.00 0.00 0.00 92 1013.3
20260905094958 76 118 0.0 0.0 0.00 0.00 0.00 92 1013.4
20260905094458 76 118 0.0 0.0 0.00 0.00 0.00 92 1013.4
20260905093958 76 118 0.0 0.0 0.00 0.00 0.00 92 1013.4
20260905092958 76 118 0.0 0.0 0.00 0.00 0.00 91 1013.2
20260905092458 76 118 0.0 0.0 0.00 0.00 0.00 91 1013.2
20260905091958 76 118 0.0 0.0 0.00 0.00 0.00 91 1013.2
20260905091458 76 118 0.0 0.0 0.00 0.00 0.00 91 1013.1
20260905090958 76 118 0.0 0.0 0.00 0.00 0.00 91 1013.2
20260905090002 76 118 0.0 0.0 0.00 0.00 0.00 91 1013.1
20260905085458 77 118 0.0 0.0 0.00 0.00 0.00 91 1013.2
20260905084957 77 118 0.0 0.0 0.00 0.00 0.00 91 1013.2
20260905084457 77 118 0.0 0.0 0.00 0.00 0.00 91 1013.2
20260905083957 77 118 0.0 0.0 0.00 0.00 0.00 90 1013.2
20260905083457 77 118 0.0 0.0 0.00 0.00 0.00 91 1013.2
20260905082957 77 118 0.0 0.0 0.00 0.00 0.00 91 1013.3
20260905082458 77 118 0.0 0.0 0.00 0.00 0.00 90 1013.3
20260905081958 77 118 0.0 0.0 0.00 0.00 0.00 90 1013.2
20260905081459 77 118 0.0 0.0 0.00 0.00 0.00 90 1013.3
20260905080457 77 118 0.0 0.0 0.00 0.00 0.00 90 1013.3
20260905080000 77 118 0.0 0.0 0.00 0.00 0.00 89 1013.3
20260905075457 77 118 0.0 0.0 0.00 0.00 0.00 89 1013.3
20260905074957 77 118 0.0 0.0 0.00 0.00 0.00 89 1013.3
20260905074457 78 118 0.0 0.0 0.00 0.00 0.00 89 1013.3
20260905073959 78 118 0.0 0.0 0.00 0.00 0.00 89 1013.3
20260905072957 78 118 0.0 0.0 0.00 0.00 0.00 89 1013.4
20260905072457 78 118 0.0 0.0 0.00 0.00 0.00 88 1013.4
20260905071957 78 118 0.0 0.0 0.00 0.00 0.00 88 1013.4
20260905071457 78 118 0.0 0.0 0.00 0.00 0.00 88 1013.5
20260905070957 78 118 0.0 0.0 0.00 0.00 0.00 88 1013.5
20260905070459 78 118 0.0 0.0 0.00 0.00 0.00 88 1013.5
20260905070000 79 118 0.0 0.0 0.00 0.00 0.00 87 1013.4
20260905065457 79 118 0.0 0.0 0.00 0.00 0.00 87 1013.5
20260905064957 79 118 0.0 0.0 0.00 0.00 0.00 87 1013.5
20260905064457 79 117 0.0 0.0 0.00 0.00 0.00 87 1013.6
20260905063457 79 117 0.0 0.0 0.00 0.00 0.00 87 1013.6
20260905061959 79 117 0.0 0.0 0.00 0.00 0.00 86 1013.6
20260905061458 79 117 0.0 0.0 0.00 0.00 0.00 86 1013.6
20260905060959 79 117 0.0 0.0 0.00 0.00 0.00 86 1013.5
20260905060459 79 117 0.0 0.0 0.00 0.00 0.00 86 1013.6
20260905055500 80 117 0.0 0.0 0.00 0.00 0.00 85 1013.5
20260905054958 80 117 0.0 0.0 0.00 0.00 0.00 85 1013.6
20260905054459 80 117 0.0 0.0 0.00 0.00 0.00 85 1013.5
20260905053459 80 117 0.0 0.0 0.00 0.00 0.00 85 1013.5
20260905052500 80 117 0.0 0.0 0.00 0.00 0.00 84 1013.5
20260905052002 80 117 0.0 0.0 0.00 0.00 0.00 83 1013.5
20260905051500 80 117 0.0 0.0 0.00 0.00 0.00 84 1013.4
20260905051000 80 117 0.0 0.0 0.00 0.00 0.00 84 1013.4
20260905050500 81 117 0.0 0.0 0.00 0.00 0.00 84 1013.5
20260905050004 81 117 0.0 0.0 0.00 0.00 0.00 84 1013.6
20260905045501 81 117 0.0 0.0 0.00 0.00 0.00 84 1013.6
20260905045000 81 117 0.0 0.0 0.00 0.00 0.00 84 1013.7